Regional Weather Roundup
Issued by NWS Newport/Morehead, NC

Current Version | Previous Version | Graphics & Text | Print | Product List | Glossary Off
Versions: 1 2 3 4 5 6 7 8 9 10 11 12 13 14 15 16 17 18 19 20 21 22 23 24 25 26 27 28 29 30 31 32 33 34 35 36 37 38 39 40 41 42 43 44 45 46 47 48 49 50

000
ASUS42 KMHX 241610
RWRMHX
WEATHER ROUNDUP FOR EASTERN NORTH CAROLINA
NATIONAL WEATHER SERVICE NEWPORT/MOREHEAD CITY NC
1100 AM EST WED DEC 24 2014

NOTE: "FAIR" INDICATES FEW OR NO CLOUDS BELOW 12,000 FEET
WITH NO SIGNIFICANT WEATHER AND/OR OBSTRUCTIONS TO VISIBILITY

NCZ015>017-031-032-045>047-102-103-241700-
NORTH COAST

CITY           SKY/WX    TMP DP  RH WIND       PRES   REMARKS
EDENTON        LGT RAIN  66  65  97 S16G22    29.83F
ELIZABETH CITY LGT RAIN  72  66  81 S14G22    29.85F
KITTY HAWK     CLOUDY    64  64  99 S12G21    29.87F
MANTEO         NOT AVBL

$$

NCZ045>047-081-094-103-104-241700-
CENTRAL COAST

CITY           SKY/WX    TMP DP  RH WIND       PRES   REMARKS
FRISCO         CLOUDY    64  62  93 S16       29.91F FOG
SWANQUARTER      N/A     63 N/A N/A S17       29.82F

$$

NCZ095-097-098-100-101-241700-
SOUTHERN COAST

CITY           SKY/WX    TMP DP  RH WIND       PRES   REMARKS
BEAUFORT       LGT RAIN  67  65  93 S13       29.89S
CEDAR ISLAND     N/A     70 N/A N/A S23       29.91S
JACKSONVILLE   RAIN      69  68  96 S15G24    29.84F FOG
PINEY ISLAND   LGT RAIN  72  67  84 S15G23    29.88F
WILMINGTON     HVY RAIN  69  68  96 S9G23     29.83R FOG


$$

NCZ011>013-027>030-043-044-078>080-089-090>093-098-241700-
COASTAL PLAIN

CITY           SKY/WX    TMP DP  RH WIND       PRES   REMARKS
AHOSKIE        HVY RAIN  67  66  97 SW5       29.81S
CLINTON        HVY RAIN  67  67 100 S5        29.83S
ELIZABETHTOWN  LGT RAIN  68  68 100 S8        29.82F
GOLDSBORO      LGT RAIN  68  68 100 S8        29.80F FOG
GREENVILLE     LGT RAIN  70  68  94 S9G18     29.84F
HAVELOCK       LGT RAIN  70  68  93 S15G24    29.88S FOG
KENANSVILLE    HVY RAIN  68  67  97 S3        29.82F
KINSTON        NOT AVBL
NEW BERN       LGT RAIN  73  68  84 S15G22    29.85F
RICHLANDS      CLOUDY    68  66  94 S13G18    29.84F
ROCKY MOUNT    RAIN      66  65  96 S12       29.80F FOG
WASHINGTON     CLOUDY    70  67  93 S13       29.83S
WHITEVILLE     LGT RAIN  70  67  91 S10G17    29.82F

$$

AMZ130-135-150-152-154-156-158-170-250-252-270-ANZ085-086-088-633-658-670-241700-
MARINE OBSERVATIONS

STATION/POSITION TIME  TEMP    WIND        PRES    WAVE   SWELL
                       AIR SEA DIR/SP/G            HT/PER HT/PER
                 (UTC) (F)     (DEG/KT/KT) (MB)    (FT/S) (FT/S)
CHESAPEAKE LIGHT 1500   55     170/ 25/ 26 1011.4
64 E VA BEACH    1600   60 53  180/ 16/ 17 1011.7    4/10   3/10
DUCK             1600   68 48  170/ 17/ 22 1010.4
2 E DUCK         1600      48                N/A     3/ 8
10 NE DUCK       1600      50                N/A     4/ 8   2/11
OREGON INLET     1600   62 51  160/ 14/ 18 1012.0
13E OREGON INLT  1600      53                N/A     4/ 8   2/11
HATTERAS CG      1600   67 55  170/  9/ 16 1012.9
DIAMOND BUOY     1600   75                 1012.5    7/ 6
17 S OCRACOKE    NOT AVBL
CAPE LOOKOUT     1500   64     160/ 17/ 18 1012.1
BEAUFORT LAB     1600   63 54  170/ 10/ 14 1011.0
30 SE NEW RIVER  1600   68 60  180/ 17/ 19 1011.7    8/ 7   2/ 9
5 SE WRIGHTSVLE  NOT AVBL
225 S CAPE HAT   1524   74 72  190/ 16/ 19 1016.7    5/ 5   2/10
41 SE CHARLESTON 1600   77 73  180/ 23/ 27 1009.8    9/ 7   2/15

$$


USA.gov is the U.S. government's official web portal to all federal, state and local government web resources and services.